Wind_Speed
67 64 62 57 55 53 52 52 54 56 55 53 58 59 65 67 68 70 74 75 77 75 69 71 71 72 72 76 81 86 89 93 98 102 107 113 119 125 129 131 138 143 147 150
54 51 51 53 52 50 50 49 53 54 56 55 59 60 66 67 69 74 75 78 78 74 75 72 70 71 73 76 80 83 89 96 100 104 108 113 119 124 127 130 135 140 143 146
50 49 50 51 51 51 48 49 50 51 54 57 57 57 67 67 72 76 78 79 77 79 76 69 70 72 71 72 74 74 80 85 90 95 102 108 113 115 118 123 131 136 139 145
57 56 53 52 53 52 51 49 50 51 52 56 62 55 65 67 72 76 79 76 79 77 72 70 66 62 57 55 55 56 58 62 67 73 82 90 100 110 114 112 113 120 131 139
64 61 59 56 54 52 51 50 51 51 55 57 62 61 64 68 73 78 76 76 75 69 67 62 63 59 52 50 50 51 50 51 55 61 67 72 77 86 96 104 109 105 110 123
70 66 64 60 58 56 55 51 52 53 55 58 61 64 63 67 73 74 74 75 70 68 64 61 55 50 48 51 51 49 46 45 45 49 54 57 61 67 74 81 90 99 104 107
64 63 65 62 57 58 57 54 52 51 54 57 61 61 64 68 71 70 71 69 65 63 64 63 49 41 43 47 50 50 47 42 39 39 41 44 48 54 62 70 76 84 90 98
55 53 55 55 56 58 57 54 53 51 52 54 61 62 61 67 67 68 67 63 59 64 65 57 43 37 37 39 41 45 44 41 37 34 34 35 38 43 51 60 65 71 78 81
46 45 49 52 51 54 52 49 49 50 51 52 58 57 63 63 64 62 57 56 57 59 56 47 36 31 31 32 33 37 40 39 36 31 28 28 29 32 40 48 54 60 61 68
35 38 43 42 49 51 47 45 46 48 48 49 51 54 59 58 59 54 50 51 53 50 49 40 33 28 27 27 29 32 34 34 32 29 25 22 24 25 29 36 43 48 51 57
32 34 32 37 44 45 41 41 42 45 47 45 45 53 52 52 52 47 45 46 46 44 43 34 29 25 23 25 26 28 33 31 27 23 18 15 15 18 20 24 30 36 41 46
31 32 36 39 41 39 38 40 39 41 42 41 45 50 49 49 47 40 40 40 39 39 39 39 32 27 21 24 24 24 30 32 24 20 15 10 6 8 13 18 23 27 32 39
35 34 35 36 38 38 36 32 35 36 35 38 41 43 45 44 42 38 35 32 33 36 37 39 37 31 23 23 27 26 28 32 30 27 20 15 9 3 3 10 16 21 27 32
33 34 32 32 35 31 27 29 31 31 32 35 39 39 41 40 37 34 30 29 30 31 35 38 37 32 23 23 27 30 30 30 32 35 34 29 23 18 11 8 11 17 20 24
30 30 29 28 28 26 25 28 26 26 29 34 36 38 36 35 32 29 27 27 26 27 31 36 38 35 28 25 28 33 37 35 34 38 41 41 39 38 32 24 19 15 15 20
34 31 29 32 28 24 25 22 23 23 27 32 36 37 34 30 28 25 23 23 24 26 29 32 39 43 39 33 33 35 36 39 41 42 41 43 44 44 42 39 34 27 18 15
32 32 34 30 24 21 21 20 19 21 25 29 35 36 31 25 23 20 18 17 22 28 31 34 36 41 44 44 42 41 38 39 41 42 41 42 43 42 41 40 39 36 32 26
34 35 33 29 23 22 21 18 16 18 21 26 30 31 27 22 20 17 14 15 21 26 30 33 36 36 38 41 45 45 46 44 41 37 36 37 38 38 38 35 34 32 30 26
35 35 34 30 27 24 20 17 14 14 17 21 27 26 26 18 17 13 14 16 19 23 28 31 32 35 38 39 41 44 44 43 44 43 43 41 36 33 31 29 26 24 22 20
40 38 35 33 30 25 21 18 13 12 15 18 23 27 19 16 13 10 12 17 22 23 27 30 30 32 34 39 40 41 43 45 45 44 42 42 40 38 34 31 26 19 16 12
43 42 39 37 32 27 23 20 14 11 13 17 20 24 20 15 9 8 12 14 18 21 25 28 31 32 34 35 37 41 43 44 43 41 41 39 36 33 31 28 25 23 21 18
46 45 43 42 36 30 25 24 16 12 11 15 13 18 15 12 8 7 9 14 19 22 25 26 29 30 30 33 35 39 42 41 40 40 39 38 37 36 35 33 32 29 25 20
51 50 47 44 41 34 26 25 19 15 12 15 12 12 10 6 5 9 9 10 12 18 24 27 29 31 35 39 39 39 39 41 42 43 44 44 43 40 38 36 35 35 30 28
56 54 52 48 44 37 31 29 23 17 17 16 15 8 6 8 3 2 3 7 9 15 19 22 26 26 25 29 29 31 32 32 33 33 34 35 36 36 37 35 38 36 37 36
54 59 57 52 49 44 38 32 28 22 20 17 18 12 7 8 5 2 2 8 14 13 18 19 19 22 22 24 26 26 27 29 30 30 31 30 29 30 30 30 31 31 30 30
51 57 59 57 54 49 43 36 36 28 23 21 20 17 14 9 8 4 2 3 8 11 10 9 10 13 14 16 18 20 21 21 22 22 23 25 26 26 28 27 28 28 28 27
Wind_Direction
283 283 284 284 283 278 278 282 284 285 287 289 288 289 290 294 300 303 303 302 302 303 299 297 292 287 282 277 271 267 263 259 255 251 248 247 245 243 243 241 238 237 236 236
281 281 282 281 279 275 278 280 280 284 288 290 291 293 294 300 303 304 306 305 308 306 305 300 296 291 285 280 274 269 265 261 258 255 253 250 247 245 243 241 239 238 236 235
280 278 279 279 277 275 277 279 283 286 290 292 291 294 296 303 306 307 306 309 310 309 305 303 300 292 287 280 276 272 267 264 262 259 256 255 254 252 249 245 242 238 236 235
277 276 276 278 278 276 275 278 283 288 291 292 294 297 298 304 306 306 309 312 310 308 310 307 300 296 292 288 283 279 274 269 265 260 255 251 250 251 253 252 247 243 240 236
275 273 273 274 276 276 276 279 284 288 292 295 296 300 304 306 307 308 312 312 311 313 313 314 313 309 304 299 293 288 282 274 267 262 260 256 251 247 247 247 248 246 242 237
272 268 269 271 272 273 275 278 280 286 291 295 297 301 306 307 306 312 313 314 316 316 319 322 316 308 307 306 304 301 296 288 278 268 261 258 254 250 248 244 242 243 241 237
270 264 262 265 267 268 270 273 278 285 290 294 297 302 307 305 311 313 316 317 317 321 326 324 317 311 311 309 309 308 305 300 291 276 266 263 257 250 245 243 240 238 238 237
265 258 254 257 261 264 266 273 278 283 288 293 297 304 306 309 314 316 318 317 323 328 327 326 319 314 316 316 315 311 309 306 301 290 275 267 260 250 243 242 240 237 236 236
256 247 246 250 253 259 266 272 278 283 290 295 301 306 307 313 316 317 318 321 329 329 327 324 319 316 322 326 331 325 318 316 311 304 288 273 264 252 241 238 237 238 236 233
251 236 235 242 248 255 264 272 278 285 290 296 301 304 310 315 319 321 320 328 329 331 333 328 330 329 329 337 344 348 342 331 322 313 302 283 267 254 242 236 233 233 230 227
236 218 221 236 247 255 263 270 280 285 292 301 303 308 316 318 322 320 328 330 331 338 340 343 337 340 341 350 349 360 8 1 344 334 317 292 271 250 237 228 225 227 226 224
211 205 217 228 242 255 263 271 279 287 298 303 308 314 321 325 324 326 334 331 335 344 353 352 352 354 356 4 359 5 18 19 15 10 357 344 308 255 229 214 213 213 214 215
210 209 221 231 243 252 261 271 281 291 299 304 312 321 327 326 323 330 338 333 341 351 0 3 360 2 8 16 16 20 24 31 34 38 40 42 39 39 202 198 195 197 201 205
210 217 219 232 244 253 261 272 284 295 304 312 319 325 329 326 328 334 340 338 350 354 7 11 15 15 21 28 26 31 32 35 41 50 53 57 63 69 84 122 156 165 176 190
211 215 223 235 245 252 261 272 286 295 307 314 325 329 334 330 333 337 343 351 1 4 14 20 29 34 35 39 35 36 36 37 40 48 54 58 61 65 69 77 90 109 140 161
204 207 218 232 242 250 259 274 283 298 309 320 330 338 336 333 335 340 348 358 14 22 22 27 34 39 41 46 46 42 41 41 44 49 50 56 59 62 66 69 73 81 99 124
207 210 219 228 234 244 257 271 278 301 310 326 334 337 337 340 336 342 356 8 26 33 31 31 33 38 45 49 50 52 51 48 45 47 50 54 55 57 62 66 68 71 77 84
206 208 217 221 226 237 248 264 275 301 315 328 336 339 341 340 335 335 351 18 35 41 43 38 38 39 41 46 48 50 52 53 50 51 54 55 58 59 59 58 62 69 75 81
206 205 216 218 220 233 244 252 266 298 314 328 340 336 336 336 333 347 1 28 40 48 54 55 50 46 46 42 44 49 51 49 49 51 53 54 59 59 61 63 67 68 69 71
206 209 213 220 219 228 237 239 254 292 305 322 332 335 330 337 343 14 40 61 61 62 63 62 59 57 57 58 55 52 53 54 51 48 46 47 49 50 53 59 66 72 78 84
202 207 210 219 220 223 230 234 241 268 292 310 321 330 322 314 341 27 57 59 57 60 64 64 64 65 64 62 61 61 61 60 60 63 65 63 60 57 54 52 51 52 54 60
204 210 210 218 217 218 227 228 228 252 275 296 321 326 321 328 342 38 74 83 75 74 71 72 71 70 70 68 68 70 67 64 64 63 62 60 60 59 58 56 52 49 45 42
205 210 210 217 217 216 224 227 222 242 248 277 300 316 308 330 40 66 77 77 73 82 87 85 81 82 80 83 79 74 73 72 70 68 67 65 63 61 60 59 58 54 52 48
214 212 211 212 218 212 217 220 214 232 237 261 273 289 290 287 313 69 41 67 72 101 94 86 87 87 76 75 77 69 70 66 64 63 61 58 58 57 59 56 56 55 56 57
218 215 214 212 218 215 213 216 212 219 231 248 262 261 248 262 246 300 81 101 101 96 88 81 74 72 67 62 56 59 58 58 56 54 52 52 51 49 47 48 45 41 39 40
221 218 214 214 217 218 212 214 216 212 226 240 251 256 238 218 190 159 110 91 95 93 64 57 49 52 49 47 47 39 38 40 39 37 37 37 34 33 33 29 27 22 18 16
Height
10555 10552 10550 10549 10545 10544 10542 10540 10537 10532 10533 10532 10522 10520 10508 10503 10496 10487 10476 10465 10454 10443 10435 10425 10414 10403 10394 10386 10377 10370 10366 10363 10362 10361 10363 10366 10369 10376 10384 10399 10411 10420 10436 10454
10539 10536 10535 10533 10532 10530 10529 10528 10524 10523 10518 10516 10508 10505 10492 10488 10479 10469 10457 10445 10432 10420 10410 10399 10388 10376 10365 10356 10346 10340 10332 10327 10326 10326 10325 10328 10330 10335 10345 10355 10367 10382 10401 10417
10525 10523 10522 10520 10519 10518 10517 10515 10514 10513 10506 10499 10498 10496 10477 10473 10461 10451 10439 10426 10412 10398 10386 10376 10363 10350 10339 10326 10317 10310 10303 10298 10295 10295 10294 10293 10294 10298 10308 10319 10328 10342 10359 10376
10511 10508 10509 10507 10505 10505 10504 10504 10503 10499 10495 10489 10479 10487 10466 10458 10447 10434 10423 10410 10395 10379 10365 10352 10338 10325 10312 10300 10291 10283 10276 10270 10265 10262 10260 10260 10262 10263 10267 10277 10291 10308 10325 10344
10494 10494 10493 10493 10492 10493 10493 10492 10490 10487 10482 10476 10468 10465 10456 10445 10431 10418 10407 10394 10378 10364 10349 10331 10314 10300 10290 10281 10272 10263 10255 10248 10242 10238 10233 10233 10234 10236 10239 10246 10254 10270 10286 10308
10473 10476 10477 10478 10479 10480 10479 10479 10479 10476 10470 10464 10456 10449 10445 10434 10420 10407 10393 10377 10362 10347 10331 10316 10301 10287 10277 10265 10254 10244 10235 10226 10220 10216 10212 10210 10210 10211 10213 10219 10226 10235 10248 10266
10450 10455 10459 10461 10465 10466 10467 10467 10468 10466 10459 10452 10445 10440 10432 10420 10409 10395 10381 10366 10352 10336 10318 10303 10290 10279 10268 10255 10241 10228 10218 10209 10201 10196 10192 10189 10188 10187 10188 10193 10201 10209 10221 10235
10430 10435 10441 10447 10450 10451 10454 10456 10455 10455 10450 10445 10434 10429 10420 10407 10396 10382 10368 10353 10341 10325 10307 10291 10280 10270 10261 10248 10234 10219 10206 10196 10187 10180 10175 10172 10170 10169 10170 10173 10181 10189 10197 10211
10413 10421 10427 10433 10437 10439 10442 10444 10444 10442 10439 10434 10424 10418 10407 10398 10385 10372 10358 10346 10333 10319 10302 10285 10274 10265 10256 10243 10229 10213 10198 10186 10176 10168 10162 10158 10155 10155 10156 10160 10166 10173 10186 10199
10401 10408 10415 10424 10425 10429 10433 10434 10433 10430 10430 10427 10416 10409 10399 10388 10375 10363 10351 10339 10327 10312 10294 10279 10267 10259 10251 10240 10227 10212 10194 10181 10170 10161 10153 10149 10146 10145 10146 10150 10155 10162 10172 10185
10391 10399 10408 10414 10416 10420 10424 10425 10425 10422 10419 10416 10410 10399 10391 10379 10366 10356 10344 10333 10321 10307 10292 10276 10264 10255 10247 10237 10225 10213 10197 10183 10169 10159 10151 10145 10142 10140 10140 10143 10148 10155 10164 10174
10384 10392 10399 10404 10408 10412 10415 10417 10416 10414 10410 10405 10398 10390 10380 10368 10358 10350 10339 10328 10317 10305 10290 10275 10262 10252 10244 10236 10226 10215 10202 10188 10174 10162 10152 10145 10141 10139 10139 10140 10144 10150 10158 10168
10378 10385 10392 10397 10401 10405 10408 10409 10408 10406 10403 10398 10391 10383 10372 10362 10352 10344 10335 10325 10314 10303 10290 10276 10262 10251 10244 10236 10227 10217 10206 10195 10181 10169 10159 10150 10144 10142 10141 10142 10145 10150 10156 10166
10373 10380 10386 10390 10393 10397 10400 10401 10402 10399 10395 10389 10383 10376 10366 10356 10347 10339 10331 10323 10313 10303 10291 10279 10266 10254 10245 10237 10229 10219 10209 10200 10190 10176 10167 10159 10153 10149 10148 10148 10151 10154 10161 10170
10369 10374 10379 10384 10387 10391 10394 10395 10395 10393 10389 10382 10377 10369 10359 10350 10343 10336 10328 10321 10313 10303 10293 10282 10270 10259 10249 10240 10233 10224 10216 10208 10198 10187 10178 10170 10164 10161 10159 10159 10161 10165 10170 10177
10362 10369 10374 10377 10381 10385 10387 10390 10389 10388 10383 10377 10370 10362 10354 10346 10340 10334 10327 10320 10312 10303 10294 10285 10274 10264 10254 10244 10238 10230 10224 10217 10208 10199 10193 10186 10181 10177 10176 10175 10176 10179 10184 10191
10357 10363 10367 10371 10375 10379 10382 10384 10384 10382 10378 10372 10365 10358 10350 10344 10338 10332 10326 10319 10311 10303 10295 10287 10278 10270 10262 10254 10245 10237 10231 10224 10217 10212 10208 10202 10198 10196 10195 10194 10194 10196 10200 10205
10350 10355 10360 10364 10369 10373 10376 10378 10379 10377 10374 10369 10362 10355 10348 10343 10338 10332 10326 10319 10311 10304 10297 10290 10284 10277 10269 10261 10253 10246 10241 10235 10230 10226 10221 10216 10214 10213 10212 10212 10212 10214 10217 10221
10344 10349 10353 10358 10362 10366 10370 10372 10373 10372 10370 10365 10360 10354 10349 10343 10338 10332 10325 10319 10313 10307 10300 10294 10288 10282 10275 10269 10262 10257 10252 10247 10243 10237 10232 10229 10227 10226 10226 10226 10227 10230 10232 10236
10337 10342 10346 10350 10355 10360 10363 10366 10367 10368 10366 10363 10358 10354 10348 10342 10337 10332 10327 10320 10315 10310 10304 10298 10293 10287 10281 10275 10269 10264 10259 10254 10250 10246 10243 10240 10239 10238 10238 10239 10240 10241 10243 10246
10327 10332 10337 10342 10347 10352 10356 10359 10361 10363 10363 10360 10356 10352 10347 10343 10338 10333 10328 10323 10318 10313 10308 10303 10298 10293 10287 10282 10277 10273 10268 10265 10262 10259 10256 10253 10251 10249 10248 10248 10249 10249 10250 10252
10317 10323 10329 10333 10338 10344 10348 10352 10355 10357 10358 10356 10354 10350 10346 10342 10337 10333 10329 10325 10321 10316 10311 10307 10303 10299 10294 10290 10286 10282 10278 10273 10269 10266 10263 10260 10258 10256 10255 10254 10253 10253 10253 10253
10306 10312 10318 10324 10328 10335 10342 10346 10349 10352 10353 10352 10351 10348 10345 10341 10338 10335 10331 10328 10323 10319 10315 10310 10307 10304 10301 10298 10294 10290 10286 10283 10279 10275 10272 10270 10267 10264 10262 10261 10260 10260 10259 10258
10294 10301 10307 10313 10319 10325 10330 10336 10339 10344 10346 10346 10346 10345 10342 10339 10337 10334 10332 10329 10326 10322 10319 10316 10313 10309 10306 10303 10300 10296 10293 10289 10285 10282 10279 10276 10274 10272 10271 10269 10268 10267 10265 10263
10282 10288 10295 10302 10309 10315 10319 10328 10331 10335 10339 10341 10341 10340 10340 10337 10336 10333 10331 10329 10327 10325 10322 10320 10317 10314 10311 10308 10305 10302 10298 10295 10291 10287 10284 10282 10279 10277 10275 10274 10272 10270 10269 10267
10271 10279 10285 10292 10297 10304 10310 10317 10321 10327 10332 10334 10335 10336 10335 10334 10333 10332 10331 10329 10327 10325 10324 10321 10318 10316 10313 10310 10307 10304 10300 10297 10295 10292 10289 10286 10283 10279 10277 10274 10272 10270 10268 10265